Time,TemperatureF,DewpointF,PressureIn,WindDirection,WindDirectionDegrees,WindSpeedMPH,WindSpeedGustMPH,Humidity,HourlyPrecipIn,Conditions,Clouds,dailyrainin,SoftwareType,DateUTC
2013-02-28 00:00:00,20.2,7.0,30.55,NE,45,0.0,0.0,56,0.00,,SKC,0.00,VWS V12.07,2013-02-28 07:00:00,
2013-02-28 01:00:00,22.1,7.2,30.53,NE,45,0.0,0.0,52,0.00,,SKC,0.00,VWS V12.07,2013-02-28 08:00:00,
2013-02-28 02:00:00,21.4,6.9,30.52,NE,45,0.0,0.0,53,0.00,,SKC,0.00,VWS V12.07,2013-02-28 09:00:00,
2013-02-28 03:00:00,20.6,6.6,30.51,NE,45,0.0,0.0,54,0.00,,SKC,0.00,VWS V12.07,2013-02-28 10:00:00,
2013-02-28 04:00:00,20.6,6.6,30.51,NE,45,0.0,0.0,54,0.00,,SKC,0.00,VWS V12.07,2013-02-28 11:00:00,
2013-02-28 05:00:00,20.5,6.1,30.51,NE,45,0.0,0.0,53,0.00,,SKC,0.00,VWS V12.07,2013-02-28 12:00:00,
2013-02-28 06:00:00,19.7,5.8,30.55,NE,45,0.0,0.0,54,0.00,,SKC,0.00,VWS V12.07,2013-02-28 13:00:00,
2013-02-28 07:00:00,20.0,6.4,30.58,NE,45,0.0,0.0,55,0.00,,SKC,0.00,VWS V12.07,2013-02-28 14:00:00,
2013-02-28 08:00:00,20.3,6.7,30.59,NE,45,0.0,0.0,55,0.00,,SKC,0.00,VWS V12.07,2013-02-28 15:00:00,
2013-02-28 09:00:00,28.2,8.6,30.53,NE,45,0.0,0.0,43,0.00,,SKC,0.00,VWS V12.07,2013-02-28 16:00:00,
2013-02-28 10:00:00,28.2,8.1,30.57,NE,45,0.0,5.0,42,0.00,,SKC,0.00,VWS V12.07,2013-02-28 17:00:00,
2013-02-28 11:00:00,30.4,9.0,30.58,East,90,0.0,1.0,40,0.00,,SKC,0.00,VWS V12.07,2013-02-28 18:00:00,
2013-02-28 12:00:00,32.8,8.2,30.55,East,90,0.0,5.0,35,0.00,,SKC,0.00,VWS V12.07,2013-02-28 19:00:00,
2013-02-28 13:00:00,34.9,9.4,30.51,East,90,0.0,6.0,34,0.00,,SKC,0.00,VWS V12.07,2013-02-28 20:00:00,
2013-02-28 14:00:00,35.0,10.1,30.51,East,90,0.0,5.0,35,0.00,,SKC,0.00,VWS V12.07,2013-02-28 21:00:00,
2013-02-28 15:00:00,39.9,9.4,30.48,East,90,0.0,5.0,28,0.00,,SKC,0.00,VWS V12.07,2013-02-28 22:00:00,
2013-02-28 16:00:00,37.8,13.3,30.49,East,90,0.0,3.0,36,0.00,,SKC,0.00,VWS V12.07,2013-02-28 23:00:00,
2013-02-28 17:00:00,37.0,11.2,30.49,East,90,0.0,4.0,34,0.00,,SKC,0.00,VWS V12.07,2013-03-01 00:00:00,
2013-02-28 18:00:00,34.4,15.8,30.53,East,90,0.0,1.0,46,0.00,,SKC,0.00,VWS V12.07,2013-03-01 01:00:00,
2013-02-28 19:00:00,32.7,13.7,30.55,East,90,0.0,0.0,45,0.00,,SKC,0.00,VWS V12.07,2013-03-01 02:00:00,
2013-02-28 19:30:00,31.8,13.4,30.57,East,93,0.0,0.0,46,0.00,,SKC,0.00,VWS V12.07,2013-03-01 02:30:00,
2013-02-28 20:01:00,33.1,14.6,30.56,East,93,0.0,0.0,46,0.00,,SKC,0.00,VWS V12.07,2013-03-01 03:01:00,
2013-02-28 20:30:00,33.7,16.1,30.50,East,93,0.0,0.0,48,0.00,,SKC,0.00,VWS V12.07,2013-03-01 03:30:00,
2013-02-28 21:01:00,34.0,15.9,30.50,East,93,0.0,0.0,47,0.00,,SKC,0.00,VWS V12.07,2013-03-01 04:01:00,
2013-02-28 21:30:00,34.6,15.5,30.50,East,93,0.0,0.0,45,0.00,,SKC,0.00,VWS V12.07,2013-03-01 04:30:00,
2013-02-28 22:00:00,33.1,15.1,30.54,East,94,0.0,0.0,47,0.00,,SKC,0.00,VWS V12.07,2013-03-01 05:00:00,
2013-02-28 22:30:00,32.8,15.3,30.52,East,93,0.0,0.0,48,0.00,,SKC,0.00,VWS V12.07,2013-03-01 05:30:00,
2013-02-28 23:00:00,33.1,15.6,30.53,East,93,0.0,0.0,48,0.00,,SKC,0.00,VWS V12.07,2013-03-01 06:00:00,
2013-02-28 23:30:00,34.7,16.0,30.48,East,94,0.0,0.0,46,0.00,,SKC,0.00,VWS V12.07,2013-03-01 06:30:00,